Home > Weather > Bradenton > Past weeks

Flag for USA Past Weather in Bradenton, Florida, USA — Yesterday and Last 2 Weeks

Now
85 °F

Sunny.


Feels Like: 92 °F
Forecast: 79 / 92 °F
Wind: 10 mph from Southeast

Location: Sarasota-Bradenton International Airport

Current Time: Jul 27, 2016 at 9:35:13 AM

Latest Report: Jul 27, 2016 at 8:53 AM


Visibility: 10 mi

Pressure: 30.08 "Hg

Humidity: 70%

Dew Point: 74 °F

Location of BradentonLocation

Past Weather in Bradenton — Graph

°F

Bradenton Temperature Yesterday

Maximum temperature yesterday: 94 °F (at 12:53 PM)
Minimum temperature yesterday: 77 °F (at 5:53 AM)
Average temperature yesterday: 86 °F

High & Low Weather Summary for the Past Weeks

 TemperatureHumidityPressure
High96 °F (Jul 17, 3:53 PM)91% (Jul 22, 8:53 PM)30.18 "Hg (Jul 22, 8:53 PM)
Low74 °F (Jul 23, 6:53 AM)40% (Jul 20, 3:53 PM)29.97 "Hg (Jul 23, 8:53 PM)
Average83 °F71%30.07 "Hg
* Reported Jul 12 7:53 AM — Jul 27 7:53 AM, Bradenton, Weather by CustomWeather, © 2016

Note: Actual official high and low records may vary slightly from our data, if they occured in-between our weather recording intervals... More about our weather records

Advertising

Bradenton Weather History for the Previous 24 Hours

Scroll right to see more
 ConditionsComfort  
Time TempWeatherWind HumidityBarometerVisibility
7:53 AM
Wed, Jul 27
81 °FSunny.8 mph79%30.06 "Hg10 mi
6:53 AM80 °FClear.3 mph85%30.04 "Hg10 mi
5:53 AM80 °FClear.5 mph85%30.03 "Hg10 mi
4:53 AM81 °FClear.3 mph82%30.03 "Hg10 mi
3:53 AM82 °FClear.5 mph79%30.03 "Hg10 mi
2:53 AM83 °FOvercast.5 mph79%30.04 "Hg10 mi
1:53 AM83 °FClear.No wind77%30.05 "Hg10 mi
12:53 AM84 °FMostly cloudy.No wind77%30.06 "Hg10 mi
12:03 AM84 °FThundershowers. Passing clouds.5 mph74%30.07 "Hg10 mi
11:53 PM
Tue, Jul 26
85 °FThunderstorms. Passing clouds.7 mph72%30.06 "Hg10 mi
10:53 PM87 °FPassing clouds.No wind63%30.05 "Hg10 mi
9:53 PM87 °FClear.3 mph63%30.04 "Hg10 mi
8:53 PM88 °FSunny.6 mph61%30.02 "Hg10 mi
7:53 PM89 °FSunny.5 mph59%30.01 "Hg10 mi
7:03 PM90 °FPassing clouds.5 mph57%30.01 "Hg10 mi
6:53 PM90 °FThunderstorms. Sunny.5 mph57%30.00 "Hg10 mi
5:53 PM89 °FPassing clouds.6 mph59%30.00 "Hg10 mi
4:53 PM93 °FSunny.9 mph56%30.00 "Hg10 mi
3:53 PM93 °FSunny.9 mph56%30.02 "Hg10 mi
2:53 PM93 °FScattered clouds.9 mph54%30.03 "Hg10 mi
1:53 PM94 °FBroken clouds.5 mph44%30.05 "Hg10 mi
12:53 PM94 °FScattered clouds.7 mph51%30.06 "Hg10 mi
11:53 AM91 °FPassing clouds.7 mph54%30.07 "Hg10 mi
10:53 AM90 °FSunny.9 mph57%30.07 "Hg10 mi
9:53 AM87 °FSunny.8 mph63%30.07 "Hg10 mi
Weather by CustomWeather, © 2016

See weather overviewHow to use our weather pages